Location: De Platvoet
(52.2667°N, 6.1667°E)
Time: 10:50:05
(UTC+00:00)

YAOGAN 11 - Pass Details

Date: 15 May 2026
Orbit: 599 x 646 km, 98.4° (Epoch: 6 June)

Event Time Altitude Azimuth Distance (km) Brightness Sun altitude
Rises 20:44:55 0° 14° (NNE) 2,944 8.1 -10.0°
Reaches altitude 10° 20:47:07 10° 14° (NNE) 2,037 7.3 -10.2°
Maximum altitude 20:51:34 82° 287° (WNW) 656 4.2 -10.7°
Drops below altitude 10° 20:56:01 10° 200° (SSW) 2,040 6.4 -11.1°
Sets 20:58:13 0° 200° (SSW) 2,948 7.2 -11.3°
